N2KC KCYS-KSUS

Flight info

Callsign N2KC
Flight time N/A
Altitude 45000
Route DCT HCT DCT MCI DCT DIXEE DCT
Aircraft C750/M-SBDE3FGHRWXY/S

Departure

Time 2026-05-05 21:26
Airport Cheyenne Regional Jerry Olson Field (KCYS)

Arrival

Time N/A
Airport Spirit of St Louis Airport (KSUS)
Time Latitude Longitude Altitude Speed Heading
2026-05-05 21:15 41.15437 -104.81970 6162 ft 0 kts 269°
2026-05-05 21:20 41.15444 -104.81983 6162 ft 3 kts 323°
2026-05-05 21:21 41.15471 -104.81984 6162 ft 0 kts
2026-05-05 21:23 41.15476 -104.81984 6171 ft 3 kts 359°
2026-05-05 21:23 41.15516 -104.82005 6163 ft 10 kts 308°
2026-05-05 21:23 41.15534 -104.82105 6164 ft 9 kts 310°
2026-05-05 21:23 41.15568 -104.82115 6164 ft 0 kts
2026-05-05 21:24 41.15581 -104.82114 6164 ft 6 kts
2026-05-05 21:24 41.15658 -104.82106 6163 ft 7 kts
2026-05-05 21:24 41.15673 -104.82087 6163 ft 1 kts 73°
2026-05-05 21:24 41.15673 -104.82078 6164 ft 0 kts 92°
2026-05-05 21:25 41.15672 -104.82066 6164 ft 14 kts 94°
2026-05-05 21:25 41.15633 -104.81473 6169 ft 116 kts 95°
2026-05-05 21:25 41.15530 -104.80179 6351 ft 153 kts 98°
2026-05-05 21:26 41.15391 -104.78682 6921 ft 173 kts 94°
2026-05-05 21:26 41.15256 -104.77058 7699 ft 186 kts 95°
2026-05-05 21:26 41.15083 -104.75281 8484 ft 197 kts 95°
2026-05-05 21:26 41.14925 -104.73564 9801 ft 180 kts 95°
2026-05-05 21:27 41.14795 -104.71880 10499 ft 190 kts 94°
2026-05-05 21:27 41.14675 -104.70115 11246 ft 193 kts 94°
2026-05-05 21:27 41.14551 -104.68328 11952 ft 201 kts 97°
2026-05-05 21:27 41.14210 -104.66350 11993 ft 243 kts 105°
2026-05-05 21:28 41.13768 -104.64170 12930 ft 236 kts 105°
2026-05-05 21:28 41.13411 -104.62049 13716 ft 241 kts 103°
2026-05-05 21:28 41.13072 -104.59899 14530 ft 234 kts 103°
2026-05-05 21:28 41.12718 -104.57754 15053 ft 244 kts 103°
2026-05-05 21:29 41.12341 -104.55525 15653 ft 250 kts 103°
2026-05-05 21:29 41.11959 -104.53241 16343 ft 256 kts 103°
2026-05-05 21:29 41.11567 -104.50886 16924 ft 269 kts 103°
2026-05-05 21:29 41.11155 -104.48426 17641 ft 276 kts 102°
2026-05-05 21:30 41.10733 -104.45909 18378 ft 284 kts 102°
2026-05-05 21:30 41.10299 -104.43327 19041 ft 289 kts 103°
2026-05-05 21:30 41.09858 -104.40707 19773 ft 293 kts 103°
2026-05-05 21:30 41.09410 -104.38048 20518 ft 298 kts 104°
2026-05-05 21:31 41.08955 -104.35349 21309 ft 302 kts 105°
2026-05-05 21:31 41.08487 -104.32584 21918 ft 312 kts 105°
2026-05-05 21:31 41.08014 -104.29780 22814 ft 313 kts 105°
2026-05-05 21:31 41.07525 -104.26903 23398 ft 325 kts 105°
2026-05-05 21:32 41.07027 -104.23970 24141 ft 328 kts 105°
2026-05-05 21:32 41.06525 -104.21010 24845 ft 331 kts 106°
2026-05-05 21:32 41.06012 -104.18004 25490 ft 337 kts 107°
2026-05-05 21:32 41.05493 -104.14958 26186 ft 340 kts 107°
2026-05-05 21:33 41.04976 -104.11932 26874 ft 344 kts 107°
2026-05-05 21:33 41.04437 -104.08784 27581 ft 348 kts 108°
2026-05-05 21:33 41.03899 -104.05649 28236 ft 351 kts 108°
2026-05-05 21:33 41.03354 -104.02476 28934 ft 355 kts 108°
2026-05-05 21:34 41.02803 -103.99271 29628 ft 359 kts 108°
2026-05-05 21:34 41.02245 -103.96036 30292 ft 363 kts 108°
2026-05-05 21:34 41.01687 -103.92805 30808 ft 367 kts 109°
2026-05-05 21:34 41.01113 -103.89492 31384 ft 372 kts 109°
2026-05-05 21:35 41.00531 -103.86133 31934 ft 376 kts 109°
2026-05-05 21:35 40.99938 -103.82720 32399 ft 385 kts 109°
2026-05-05 21:35 40.99331 -103.79239 32923 ft 390 kts 109°
2026-05-05 21:35 40.98721 -103.75722 33456 ft 395 kts 109°
2026-05-05 21:36 40.98099 -103.72162 33996 ft 400 kts 109°
2026-05-05 21:36 40.97467 -103.68558 34453 ft 404 kts 109°
2026-05-05 21:36 40.96830 -103.64919 34913 ft 408 kts 109°
2026-05-05 21:36 40.96184 -103.61240 35345 ft 412 kts 109°
2026-05-05 21:37 40.95531 -103.57532 35814 ft 416 kts 109°
2026-05-05 21:37 40.94870 -103.53788 36261 ft 420 kts 109°
2026-05-05 21:37 40.94201 -103.50005 36711 ft 425 kts 109°
2026-05-05 21:37 40.93523 -103.46176 37097 ft 431 kts 109°
2026-05-05 21:38 40.92834 -103.42300 37542 ft 435 kts 109°
2026-05-05 21:38 40.92139 -103.38381 38013 ft 439 kts 109°
2026-05-05 21:38 40.91436 -103.34436 38459 ft 444 kts 109°
2026-05-05 21:38 40.90723 -103.30452 38827 ft 449 kts 109°
2026-05-05 21:39 40.89987 -103.26359 38851 ft 465 kts 109°
2026-05-05 21:39 40.89237 -103.22175 39202 ft 468 kts 109°
2026-05-05 21:39 40.88491 -103.17983 39633 ft 470 kts 108°
2026-05-05 21:39 40.87730 -103.13768 40016 ft 473 kts 108°
2026-05-05 21:40 40.86959 -103.09524 40385 ft 477 kts 108°
2026-05-05 21:40 40.86186 -103.05258 40776 ft 479 kts 108°
2026-05-05 21:40 40.85411 -103.00962 41173 ft 482 kts 108°
2026-05-05 21:40 40.84626 -102.96645 41563 ft 485 kts 108°
2026-05-05 21:41 40.83833 -102.92306 41945 ft 487 kts 108°
2026-05-05 21:41 40.83035 -102.87942 42301 ft 490 kts 108°
2026-05-05 21:41 40.82226 -102.83528 42323 ft 501 kts 108°
2026-05-05 21:41 40.81400 -102.79028 42655 ft 504 kts 107°
2026-05-05 21:42 40.80574 -102.74520 43052 ft 507 kts 107°
2026-05-05 21:42 40.79739 -102.69995 43382 ft 510 kts 107°
2026-05-05 21:42 40.78905 -102.65493 43734 ft 512 kts 107°
2026-05-05 21:42 40.78058 -102.60925 44076 ft 515 kts 107°
2026-05-05 21:43 40.77205 -102.56324 44410 ft 517 kts 107°
2026-05-05 21:43 40.76345 -102.51704 44726 ft 520 kts 107°
2026-05-05 21:43 40.75479 -102.47065 45016 ft 522 kts 107°
2026-05-05 21:43 40.74600 -102.42375 45024 ft 531 kts 107°
2026-05-05 21:44 40.72796 -102.32767 45036 ft 548 kts 107°
2026-05-05 21:44 40.70932 -102.22885 45041 ft 564 kts 107°
2026-05-05 21:45 40.69005 -102.12726 45044 ft 578 kts 107°
2026-05-05 21:45 40.67026 -102.02345 45047 ft 587 kts 107°
2026-05-05 21:46 40.65020 -101.91878 45038 ft 591 kts 107°
2026-05-05 21:46 40.62996 -101.81375 45042 ft 593 kts 107°
2026-05-05 21:47 40.60958 -101.70859 45033 ft 593 kts 107°
2026-05-05 21:47 40.58914 -101.60364 45033 ft 591 kts 107°
2026-05-05 21:48 40.56865 -101.49900 45031 ft 590 kts 107°
2026-05-05 21:48 40.54813 -101.39469 45029 ft 589 kts 107°
2026-05-05 21:49 40.52752 -101.29056 45043 ft 588 kts 107°
2026-05-05 21:49 40.50683 -101.18652 45054 ft 589 kts 107°
2026-05-05 21:50 40.48602 -101.08241 45051 ft 589 kts 107°
2026-05-05 21:50 40.46511 -100.97832 45050 ft 590 kts 108°
2026-05-05 21:51 40.44577 -100.87361 45047 ft 591 kts 104°
2026-05-05 21:51 40.42934 -100.76769 45054 ft 595 kts 104°
2026-05-05 21:52 40.40301 -100.60681 45045 ft 607 kts 104°
2026-05-05 21:53 40.38555 -100.49839 45044 ft 606 kts 104°
2026-05-05 21:53 40.36769 -100.39055 45043 ft 604 kts 104°
2026-05-05 21:54 40.35013 -100.28316 45021 ft 602 kts 104°
2026-05-05 21:54 40.33226 -100.17613 45028 ft 600 kts 104°
2026-05-05 21:55 40.31452 -100.06940 45025 ft 599 kts 104°
2026-05-05 21:55 40.29659 -99.96296 45019 ft 597 kts 105°
2026-05-05 21:56 40.28171 -99.87470 45027 ft 596 kts 105°
2026-05-05 21:56 40.26374 -99.76887 45039 ft 595 kts 105°
2026-05-05 21:57 40.24278 -99.64616 45046 ft 594 kts 105°
2026-05-05 21:57 40.22761 -99.55793 45042 ft 593 kts 105°
2026-05-05 21:58 40.20941 -99.45259 45041 ft 593 kts 105°
2026-05-05 21:58 40.19113 -99.34736 45027 ft 593 kts 105°
2026-05-05 21:59 40.17273 -99.24213 45033 ft 594 kts 105°
2026-05-05 21:59 40.15424 -99.13689 45038 ft 594 kts 105°
2026-05-05 22:00 40.13563 -99.03164 45040 ft 594 kts 105°
2026-05-05 22:00 40.11708 -98.92726 45034 ft 594 kts 106°
2026-05-05 22:01 40.09826 -98.82203 45034 ft 595 kts 106°
2026-05-05 22:01 40.07933 -98.71670 45045 ft 596 kts 106°
2026-05-05 22:02 40.06026 -98.61127 45037 ft 597 kts 106°
2026-05-05 22:02 40.04107 -98.50569 45036 ft 598 kts 106°
2026-05-05 22:03 40.02176 -98.40006 45033 ft 599 kts 106°
2026-05-05 22:03 40.00234 -98.29440 45027 ft 599 kts 107°
2026-05-05 22:04 39.98283 -98.18883 45024 ft 599 kts 107°
2026-05-05 22:04 39.96323 -98.08335 45030 ft 598 kts 107°
2026-05-05 22:05 39.94352 -97.97790 45009 ft 599 kts 107°
2026-05-05 22:05 39.92372 -97.87246 45005 ft 599 kts 107°
2026-05-05 22:06 39.90379 -97.76700 45007 ft 600 kts 107°
2026-05-05 22:06 39.88378 -97.66158 45001 ft 600 kts 107°
2026-05-05 22:07 39.86363 -97.55607 45000 ft 601 kts 108°
2026-05-05 22:07 39.84338 -97.45057 44992 ft 601 kts 108°
2026-05-05 22:08 39.82317 -97.34580 44992 ft 601 kts 108°
2026-05-05 22:08 39.80272 -97.24039 44958 ft 601 kts 108°
2026-05-05 22:09 39.78223 -97.13525 44991 ft 599 kts 108°
2026-05-05 22:09 39.76164 -97.03030 44995 ft 599 kts 108°
2026-05-05 22:10 39.74100 -96.92546 44988 ft 599 kts 108°
2026-05-05 22:10 39.72022 -96.82058 44981 ft 600 kts 108°
2026-05-05 22:11 39.69932 -96.71558 44977 ft 601 kts 108°
2026-05-05 22:11 39.67831 -96.61057 44979 ft 602 kts 108°
2026-05-05 22:12 39.65716 -96.50541 44984 ft 602 kts 109°
2026-05-05 22:12 39.63590 -96.40022 44983 ft 603 kts 108°
2026-05-05 22:13 39.61455 -96.29509 44980 ft 602 kts 109°
2026-05-05 22:13 39.59311 -96.19016 44977 ft 602 kts 109°
2026-05-05 22:14 39.57158 -96.08522 44968 ft 602 kts 109°
2026-05-05 22:14 39.54993 -95.98028 44960 ft 603 kts 109°
2026-05-05 22:15 39.52831 -95.87594 44964 ft 604 kts 109°
2026-05-05 22:15 39.50644 -95.77096 44961 ft 604 kts 109°
2026-05-05 22:16 39.48444 -95.66584 44975 ft 605 kts 109°
2026-05-05 22:16 39.46231 -95.56065 44968 ft 606 kts 109°
2026-05-05 22:17 39.44010 -95.45554 44961 ft 606 kts 110°
2026-05-05 22:17 39.41774 -95.35033 44959 ft 607 kts 110°
2026-05-05 22:18 39.39523 -95.24490 44969 ft 609 kts 109°
2026-05-05 22:18 39.37254 -95.13912 44963 ft 612 kts 109°
2026-05-05 22:19 39.34968 -95.03306 44962 ft 614 kts 109°
2026-05-05 22:19 39.32664 -94.92666 44948 ft 616 kts 109°
2026-05-05 22:20 39.30325 -94.81930 44948 ft 624 kts 109°
2026-05-05 22:20 39.28039 -94.71117 44945 ft 622 kts 106°
2026-05-05 22:21 39.26080 -94.60292 44918 ft 618 kts 106°
2026-05-05 22:21 39.24083 -94.49552 44948 ft 614 kts 107°
2026-05-05 22:22 39.22104 -94.38862 44958 ft 612 kts 107°
2026-05-05 22:22 39.20116 -94.28203 44955 ft 610 kts 107°
2026-05-05 22:23 39.18120 -94.17586 44948 ft 609 kts 107°
2026-05-05 22:23 39.16127 -94.06995 44956 ft 608 kts 107°
2026-05-05 22:24 39.14127 -93.96471 44959 ft 609 kts 107°
2026-05-05 22:24 39.12109 -93.85865 44956 ft 611 kts 107°
2026-05-05 22:25 39.10068 -93.75235 44968 ft 612 kts 107°
2026-05-05 22:25 39.08017 -93.64573 44772 ft 618 kts 107°
2026-05-05 22:25 39.06972 -93.59181 43817 ft 619 kts 107°
2026-05-05 22:26 39.05937 -93.53837 43005 ft 612 kts 107°
2026-05-05 22:26 39.04909 -93.48536 42213 ft 607 kts 108°
2026-05-05 22:26 39.03886 -93.43298 41430 ft 603 kts 108°
2026-05-05 22:26 39.02864 -93.38083 40647 ft 599 kts 108°
2026-05-05 22:27 39.01849 -93.32904 39869 ft 596 kts 109°
2026-05-05 22:27 39.00837 -93.27744 39090 ft 594 kts 109°
2026-05-05 22:27 38.99824 -93.22601 38262 ft 592 kts 109°
2026-05-05 22:27 38.98814 -93.17493 37492 ft 588 kts 109°
2026-05-05 22:28 38.97810 -93.12420 36724 ft 583 kts 109°
2026-05-05 22:28 38.96813 -93.07389 35962 ft 579 kts 109°
2026-05-05 22:28 38.95820 -93.02404 35204 ft 574 kts 109°
2026-05-05 22:28 38.94832 -92.97451 34453 ft 570 kts 108°
2026-05-05 22:29 38.93849 -92.92533 33737 ft 565 kts 108°
2026-05-05 22:29 38.92877 -92.87675 33003 ft 558 kts 108°
2026-05-05 22:29 38.91913 -92.82877 32274 ft 552 kts 108°
2026-05-05 22:29 38.90955 -92.78123 31579 ft 547 kts 108°
2026-05-05 22:30 38.90005 -92.73418 30866 ft 542 kts 108°
2026-05-05 22:30 38.89063 -92.68759 30159 ft 537 kts 108°
2026-05-05 22:30 38.88127 -92.64139 29403 ft 531 kts 108°
2026-05-05 22:30 38.87203 -92.59583 28710 ft 523 kts 108°
2026-05-05 22:31 38.86294 -92.55114 27983 ft 514 kts 108°
2026-05-05 22:31 38.85399 -92.50724 27353 ft 504 kts 108°
2026-05-05 22:31 38.84516 -92.46410 26681 ft 495 kts 108°
2026-05-05 22:31 38.83649 -92.42177 26043 ft 487 kts 108°
2026-05-05 22:32 38.82795 -92.38014 25408 ft 478 kts 108°
2026-05-05 22:32 38.81956 -92.33933 24786 ft 470 kts 109°
2026-05-05 22:32 38.81129 -92.29919 24178 ft 461 kts 109°
2026-05-05 22:32 38.80316 -92.25978 23575 ft 453 kts 109°
2026-05-05 22:33 38.79518 -92.22118 22927 ft 443 kts 109°
2026-05-05 22:33 38.78737 -92.18351 22361 ft 432 kts 109°
2026-05-05 22:33 38.77973 -92.14668 21800 ft 423 kts 109°
2026-05-05 22:33 38.77223 -92.11065 21254 ft 415 kts 109°
2026-05-05 22:34 38.76495 -92.07564 20718 ft 409 kts 109°
2026-05-05 22:34 38.75766 -92.04070 20184 ft 403 kts 109°
2026-05-05 22:34 38.75036 -92.00579 19648 ft 398 kts 109°
2026-05-05 22:34 38.74332 -91.97216 19136 ft 394 kts 108°
2026-05-05 22:35 38.73624 -91.93837 18617 ft 390 kts 108°
2026-05-05 22:35 38.72923 -91.90493 18073 ft 387 kts 109°
2026-05-05 22:35 38.72227 -91.87183 17544 ft 383 kts 109°
2026-05-05 22:35 38.71540 -91.83916 17046 ft 378 kts 109°
2026-05-05 22:36 38.70858 -91.80681 16549 ft 374 kts 109°
2026-05-05 22:36 38.70184 -91.77486 16063 ft 370 kts 109°
2026-05-05 22:36 38.69515 -91.74326 15576 ft 366 kts 109°
2026-05-05 22:36 38.68851 -91.71191 15105 ft 363 kts 109°
2026-05-05 22:37 38.68192 -91.68083 14622 ft 361 kts 109°
2026-05-05 22:37 38.67537 -91.64999 14151 ft 358 kts 109°
2026-05-05 22:37 38.66883 -91.61929 13677 ft 356 kts 109°
2026-05-05 22:37 38.66235 -91.58881 13182 ft 353 kts 109°
2026-05-05 22:38 38.65591 -91.55861 12719 ft 350 kts 110°
2026-05-05 22:38 38.64954 -91.52874 12260 ft 346 kts 110°
2026-05-05 22:38 38.64323 -91.49925 11796 ft 343 kts 110°
2026-05-05 22:38 38.63695 -91.46999 11353 ft 340 kts 110°
2026-05-05 22:39 38.63070 -91.44088 10910 ft 338 kts 110°
2026-05-05 22:39 38.62449 -91.41200 10469 ft 336 kts 110°
2026-05-05 22:39 38.61833 -91.38324 10010 ft 334 kts 110°
2026-05-05 22:39 38.61218 -91.35466 9563 ft 333 kts 110°
2026-05-05 22:40 38.60606 -91.32630 9118 ft 329 kts 110°
2026-05-05 22:40 38.60002 -91.29830 8683 ft 325 kts 110°
2026-05-05 22:40 38.59406 -91.27067 8255 ft 320 kts 109°
2026-05-05 22:40 38.58815 -91.24353 7838 ft 315 kts 109°
2026-05-05 22:41 38.58475 -91.21615 7366 ft 314 kts 90°
2026-05-05 22:41 38.59002 -91.18931 6971 ft 310 kts 66°
2026-05-05 22:41 38.60054 -91.16629 6619 ft 291 kts 58°
2026-05-05 22:41 38.61101 -91.14501 6242 ft 276 kts 59°
2026-05-05 22:42 38.62091 -91.12453 5864 ft 265 kts 59°
2026-05-05 22:42 38.63036 -91.10483 5521 ft 255 kts 58°
2026-05-05 22:42 38.63942 -91.08592 5187 ft 245 kts 58°
2026-05-05 22:42 38.64812 -91.06769 4867 ft 236 kts 57°
2026-05-05 22:43 38.65646 -91.05033 4549 ft 227 kts 56°
2026-05-05 22:43 38.66457 -91.03347 4234 ft 218 kts 55°
2026-05-05 22:43 38.67238 -91.01714 3957 ft 215 kts 56°
2026-05-05 22:43 38.68020 -91.00058 3667 ft 219 kts 58°
2026-05-05 22:44 38.68354 -90.98137 3308 ft 231 kts 90°
2026-05-05 22:44 38.67821 -90.96181 3009 ft 241 kts 121°
2026-05-05 22:44 38.66538 -90.94778 2757 ft 246 kts 144°
2026-05-05 22:44 38.65069 -90.93657 2469 ft 246 kts 146°
2026-05-05 22:45 38.63580 -90.92599 2322 ft 240 kts 148°
2026-05-05 22:45 38.62294 -90.91356 2256 ft 225 kts 125°
2026-05-05 22:45 38.61867 -90.89574 2215 ft 204 kts 83°
2026-05-05 22:45 38.62116 -90.87890 2328 ft 186 kts 72°
2026-05-05 22:46 38.62298 -90.86822 2325 ft 184 kts 73°
2026-05-05 22:46 38.62563 -90.85229 2307 ft 182 kts 74°
2026-05-05 22:46 38.62829 -90.83636 2309 ft 181 kts 73°
2026-05-05 22:46 38.63088 -90.82090 2305 ft 180 kts 73°
2026-05-05 22:47 38.63347 -90.80534 2297 ft 178 kts 73°
2026-05-05 22:47 38.63600 -90.79029 2300 ft 167 kts 73°
2026-05-05 22:47 38.63823 -90.77734 2270 ft 134 kts 72°
2026-05-05 22:47 38.63999 -90.76656 2163 ft 116 kts 72°
2026-05-05 22:48 38.64170 -90.75666 2037 ft 113 kts 72°
2026-05-05 22:48 38.64332 -90.74678 1891 ft 114 kts 72°
2026-05-05 22:48 38.64495 -90.73685 1743 ft 115 kts 72°
2026-05-05 22:48 38.64662 -90.72676 1579 ft 117 kts 71°
2026-05-05 22:49 38.64827 -90.71681 1416 ft 113 kts 70°
2026-05-05 22:49 38.64991 -90.70708 1248 ft 111 kts 71°
2026-05-05 22:49 38.65153 -90.69731 1083 ft 115 kts 73°
2026-05-05 22:49 38.65318 -90.68727 939 ft 116 kts 72°
2026-05-05 22:50 38.65489 -90.67698 770 ft 119 kts 75°
2026-05-05 22:50 38.65659 -90.66673 640 ft 118 kts 75°
2026-05-05 22:50 38.65822 -90.65653 474 ft 112 kts 74°